Valentine, NE

9:01 PM CST on December 07, 2019 (GMT -0600)
Miller Field

Weather History for KVTN - October, 2019

Change the Weather History Date:

Saturday, October 19, 2019

  Actual Average Record
Temperature  
Mean Temperature 48 °F 47 °F  
Max Temperature 64 °F 62 °F 91 °F (1958)
Min Temperature 30 °F 33 °F 13 °F (1989)
Degree Days  
Heating Degree Days 18 18  
Month to date heating degree days 352 273  
Since 1 July heating degree days 405 458  
Cooling Degree Days 0 0  
Month to date cooling degree days 0 1  
Year to date cooling degree days 930 818  
Moisture  
Dew Point 29 °F    
Average Humidity 60    
Maximum Humidity 89    
Minimum Humidity 23    
Precipitation  
Precipitation 0.00 in 0.04 in 1.71 in (1908)
Month to date precipitation 0.67 0.86  
Year to date precipitation 27.57 18.61  
Snow  
Snow 0.00 in 0.00 in 3.30 in (1905)
Month to date snowfall 1.9 0.6  
Since 1 July snowfall 1.9 1.3  
Since 1 September snowfall 1.9 1.3  
Snow Depth 0.00 in    
Sea Level Pressure  
Sea Level Pressure 29.80 in    
Wind  
Wind Speed 6 mph ()    
Max Wind Speed 13 mph    
Max Gust Speed 17 mph    
Visibility 9.9 miles    
Events      
T = Trace of Precipitation, MM = Missing Value Source: Averaged Metar Reports

Daily Weather History Graph

Daily Weather History Graph

Search for Another Location

Airport or City:

Astronomy

Oct. 19, 2019 Rise Set
Actual Time 8:00 AM CDT 6:53 PM CDT
Civil Twilight 7:31 AM CDT 7:22 PM CDT
Nautical Twilight 6:58 AM CDT 7:55 PM CDT
Astronomical Twilight 6:25 AM CDT 8:27 PM CDT
Moon 10:58 PM CDT (10/19) 1:40 PM CDT (10/19)
Length of Visible Light 11h 50m
Length of Day
10h 53m
Waning Gibbous, 69% of the Moon is Illuminated
Oct 19
Waning Gibbous
Oct 21
Last Quarter
Oct 27
New
Nov 4
First Quarter
Nov 12
Full

Hourly Weather History & Observations

Time (CDT) Temp. Windchill Dew Point Humidity Pressure Visibility Wind Dir Wind Speed Gust Speed Precip Events Conditions
12:52 AM 35.1 °F 29.3 °F 30.0 °F 82% 29.78 in 10.0 mi SW 6.9 mph - N/A   Clear
1:52 AM 35.1 °F 29.3 °F 30.9 °F 85% 29.80 in 10.0 mi SW 6.9 mph - N/A   Clear
2:52 AM 34.0 °F 28.0 °F 30.0 °F 85% 29.81 in 10.0 mi WSW 6.9 mph - N/A   Clear
3:52 AM 37.9 °F 30.5 °F 32.0 °F 79% 29.82 in 10.0 mi WSW 11.5 mph - N/A   Clear
4:52 AM 34.0 °F 25.5 °F 30.0 °F 85% 29.82 in 10.0 mi SW 11.5 mph - N/A   Clear
5:52 AM 33.1 °F 25.5 °F 28.9 °F 85% 29.84 in 10.0 mi SW 9.2 mph - N/A   Clear
6:52 AM 33.1 °F 26.1 °F 28.0 °F 82% 29.86 in 10.0 mi WSW 8.1 mph - N/A   Clear
7:52 AM 30.9 °F 24.3 °F 27.0 °F 85% 29.87 in 10.0 mi West 6.9 mph - N/A   Clear
8:52 AM 34.0 °F 28.0 °F 30.0 °F 85% 29.87 in 10.0 mi SW 6.9 mph - N/A   Clear
9:52 AM 41.0 °F 36.4 °F 34.0 °F 76% 29.87 in 10.0 mi SW 6.9 mph - N/A   Clear
10:52 AM 51.1 °F - 37.0 °F 59% 29.86 in 10.0 mi WNW 4.6 mph - N/A   Clear
11:52 AM 57.9 °F - 36.0 °F 44% 29.85 in 10.0 mi WNW 8.1 mph - N/A   Clear
12:52 PM 62.1 °F - 32.0 °F 32% 29.83 in 10.0 mi WNW 6.9 mph - N/A   Mostly Cloudy
1:52 PM 63.0 °F - 30.9 °F 30% 29.80 in 10.0 mi North - - N/A   Clear
2:52 PM 63.0 °F - 28.9 °F 28% 29.77 in 10.0 mi South 6.9 mph - N/A   Clear
3:52 PM 64.9 °F - 28.9 °F 26% 29.74 in 10.0 mi SW 8.1 mph - N/A   Clear
4:52 PM 64.0 °F - 27.0 °F 25% 29.74 in 10.0 mi Variable 3.5 mph - N/A   Clear
5:52 PM 63.0 °F - 24.1 °F 23% 29.74 in 10.0 mi WSW 10.4 mph - N/A   Clear
6:52 PM 55.0 °F - 23.0 °F 29% 29.75 in 10.0 mi WSW 3.5 mph - N/A   Clear
7:52 PM 46.9 °F - 26.1 °F 44% 29.76 in 10.0 mi Calm Calm - N/A   Clear
8:52 PM 42.1 °F 39.2 °F 27.0 °F 55% 29.76 in 10.0 mi NNE 4.6 mph - N/A   Clear
9:52 PM 37.9 °F - 28.0 °F 68% 29.75 in 7.0 mi Calm Calm - N/A   Clear
10:52 PM 37.9 °F 35.5 °F 28.0 °F 68% 29.73 in 10.0 mi ENE 3.5 mph - N/A   Clear
11:52 PM 37.9 °F - 28.9 °F 70% 29.70 in 10.0 mi Calm Calm - N/A   Clear